This demonstration page uses our WeatherBlox Daily Observations layout. Learn more.

Left ArrowRight Arrow

39.08367, -84.50855

Hourly Observations for March 1, 2019

Temp ( °F °C ) Dew Point ( °F °C ) Humidity (%) Winds ( mph kmh ) Pressure ( in mb ) Visibility ( mi km ) Precip ( " mm )
12:53 am 00:53 Cloudy 32 0 27 -2.8 82 82 NNE 7 11 30.14 1021 8 13 0.00 0.03
1:53 am 01:53 Cloudy 32 0 27 -2.8 82 82 N 6 9 30.16 1021 10 16 0.00 0.00
2:50 am 02:50 Cloudy 32 0 27 -3 80 80 N 6 9 30.18 1022 10 16 0.00 0.00
2:53 am 02:53 Cloudy 32 0 27 -2.8 82 82 N 6 9 30.16 1021 10 16 0.00 0.00
3:24 am 03:24 Cloudy 32 0 27 -2.8 82 82 NNE 8 13 30.17 1022 10 16 0.00 0.00
3:53 am 03:53 Cloudy 31 -0.6 26 -3.3 82 82 NNE 10 17 30.13 1020 10 16 0.00 0.00
4:53 am 04:53 Cloudy 32 0 26 -3.3 79 79 NE 9 15 30.15 1021 10 16 0.00 0.00
5:53 am 05:53 Cloudy 32 0 26 -3.3 79 79 NE 8 13 30.16 1021 10 16 0.00 0.00
6:53 am 06:53 Cloudy 32 0 26 -3.3 79 79 NE 10 17 30.14 1021 9 14 0.00 0.00
7:53 am 07:53 Cloudy 32 0 26 -3.3 79 79 NE 10 17 30.15 1021 8 13 0.00 0.00
8:53 am 08:53 Cloudy 33 0.6 26 -3.3 75 75 NNE 9 15 30.17 1022 8 13 0.00 0.00
9:53 am 09:53 Cloudy 34 1.1 27 -2.8 76 76 NNE 7 11 30.17 1022 8 13 0.00 0.00
10:53 am 10:53 Cloudy 36 2.2 28 -2.2 73 73 ENE 7 11 30.16 1021 8 13 0.00 0.00
11:04 am 11:04 Cloudy 36 2.2 28 -2.2 73 73 ENE 7 11 30.16 1021 8 13 0.00 0.00
11:53 am 11:53 Cloudy 38 3.3 29 -1.7 70 70 NE 8 13 30.16 1021 10 16 0.00 0.00
12:53 pm 12:53 Cloudy 40 4.4 30 -1.1 68 68 NNE 7 11 30.13 1020 10 16 0.00 0.00
1:53 pm 13:53 Cloudy 41 5 30 -1.1 65 65 ENE 9 15 30.08 1019 10 16 0.00 0.00
2:53 pm 14:53 Cloudy 41 5 30 -1.1 65 65 NE 7 11 30.07 1018 10 16 0.00 0.00
3:53 pm 15:53 Cloudy 42 5.6 31 -0.6 65 65 NE 8 13 30.05 1018 10 16 0.00 0.00
4:53 pm 16:53 Cloudy 42 5.6 31 -0.6 65 65 NE 6 9 30.07 1018 10 16 0.00 0.00
5:53 pm 17:53 Cloudy 41 5 31 -0.6 67 67 NNE 6 9 30.07 1018 10 16 0.00 0.00
6:53 pm 18:53 Cloudy 41 5 31 -0.6 67 67 NNE 6 9 30.08 1019 10 16 0.00 0.00
7:53 pm 19:53 Cloudy 41 5 30 -1.1 65 65 N 5 7 30.09 1019 10 16 0.00 0.00
8:53 pm 20:53 Cloudy 41 5 30 -1.1 65 65 Calm 30.10 1019 10 16 0.00 0.00
9:53 pm 21:53 Cloudy 40 4.4 33 0.6 77 77 Calm 30.11 1020 10 16 0.00 0.00
10:53 pm 22:53 Cloudy 39 3.9 33 0.6 79 79 Calm 30.11 1020 10 16 0.00 0.00
11:53 pm 23:53 Cloudy 40 4.4 34 1.1 79 79 Calm 30.11 1020 10 16 0.00 0.00

Powered by AerisWeather